Theta_e
310 310 309 307 307 307 308 308 309 309 308 308 306 304 300 301 298 296 296 299 297 297 300 298 299 303 303 303 306 304 303 307 308 304 303 303 302 306 307 307 307 308 306 306 306 306 308 307 307 307 307 307 307 307 307 306 305 304 304 304 305 303 302 302 302 304 305 307 306 304 304 304 305 305
310 310 308 307 307 309 307 308 308 308 307 307 306 305 304 302 299 298 296 296 299 299 302 300 300 302 302 304 305 305 303 310 307 304 303 302 303 307 307 305 305 305 305 303 302 305 306 306 306 308 307 307 307 306 306 305 305 305 304 304 303 303 303 303 303 304 304 305 305 304 304 305 305 305
310 308 308 308 308 308 308 308 307 307 307 306 306 306 307 305 302 299 299 295 301 302 300 302 303 302 303 304 303 304 304 306 306 303 302 303 307 309 305 306 306 305 305 303 306 308 306 304 306 307 308 307 307 306 306 305 305 305 305 303 303 304 303 303 303 304 304 305 305 304 304 304 304 305
311 309 308 308 308 308 308 307 310 307 307 307 306 305 306 304 304 302 300 297 297 302 302 302 303 303 303 303 302 302 303 305 307 302 302 303 307 303 302 305 306 306 304 303 304 305 304 304 306 307 307 306 306 306 305 304 304 304 303 303 303 303 303 303 303 304 304 304 304 303 303 303 303 303
309 308 306 306 307 307 308 308 308 307 305 306 310 306 304 304 303 301 299 297 297 301 304 303 303 304 304 301 302 301 301 301 302 304 302 302 301 301 301 303 305 305 304 303 301 301 301 302 305 306 305 304 304 303 302 302 302 303 303 302 301 301 302 302 302 302 303 302 302 302 302 302 302 302
310 308 305 306 306 307 306 305 304 304 304 302 301 303 304 302 303 302 301 299 298 297 300 301 303 302 303 300 302 300 300 300 301 301 300 301 301 301 302 302 303 305 304 303 301 302 302 301 302 301 300 300 300 301 300 300 299 301 301 297 297 301 302 302 302 301 302 302 302 302 301 301 301 302
308 307 307 306 307 309 306 306 305 307 305 304 302 303 303 302 302 303 303 300 298 297 298 301 300 300 302 301 300 301 301 301 301 300 299 300 301 302 302 302 303 303 303 303 302 301 301 301 301 300 301 300 300 300 300 300 300 299 299 299 300 300 300 300 300 300 302 302 302 301 301 301 301 303
306 307 307 306 307 307 305 305 305 306 305 307 303 302 302 302 301 303 303 303 300 299 298 299 299 301 300 301 301 301 301 300 300 299 299 300 300 301 302 302 302 303 304 303 302 302 302 301 301 300 300 300 300 300 299 300 300 299 299 299 299 299 298 298 298 298 300 300 301 301 300 300 302 303
307 307 307 306 307 306 305 305 304 304 304 304 303 300 300 301 303 304 303 302 301 299 298 298 301 302 300 302 301 300 299 299 299 298 298 299 300 301 302 303 304 305 304 303 304 302 301 301 301 301 300 300 300 300 300 300 300 299 299 299 298 298 298 298 298 298 298 298 298 300 300 300 301 302
309 308 306 307 306 306 305 304 303 303 303 303 302 301 300 299 300 301 301 301 300 300 298 298 298 299 300 299 299 299 299 298 297 296 297 298 299 299 299 301 303 304 303 302 303 303 302 302 301 301 301 300 300 300 300 300 300 300 299 298 298 298 298 297 297 297 297 298 298 298 299 299 300 301
308 308 306 306 306 305 304 303 302 302 303 305 302 302 301 300 300 300 299 299 299 298 298 297 298 298 299 298 296 298 299 298 297 295 295 295 298 299 299 299 301 302 302 302 302 302 301 303 302 301 300 300 301 301 300 300 300 300 299 297 297 297 297 297 297 297 297 297 297 296 296 297 299 300
308 307 305 304 301 299 297 299 298 298 299 301 301 300 301 299 299 298 299 298 297 297 297 296 296 297 297 296 297 299 297 295 294 296 296 294 295 297 298 299 299 301 301 300 301 302 302 302 302 301 301 302 302 301 300 300 300 300 298 297 297 296 296 297 297 297 297 297 296 296 296 296 296 298
306 304 302 299 297 299 298 298 297 297 297 299 298 299 298 298 298 297 297 297 296 295 295 296 298 295 295 295 295 294 293 293 293 295 296 295 296 297 297 298 300 301 300 300 300 301 301 300 299 299 299 300 301 301 301 300 300 299 297 297 297 296 296 296 297 297 297 296 296 296 296 296 296 296
305 303 299 300 299 298 297 296 298 295 297 299 298 297 297 296 296 296 295 294 295 295 294 295 295 294 293 293 294 294 294 295 296 295 295 294 295 296 295 297 299 301 300 299 298 300 302 300 298 298 298 300 300 299 299 298 298 298 297 297 297 296 296 296 296 296 296 296 295 295 295 296 296 295
304 300 297 298 298 299 298 300 296 294 294 294 294 295 298 301 298 295 294 294 294 294 294 296 295 293 292 293 294 294 294 295 295 295 295 294 294 293 292 292 296 300 300 299 298 298 300 298 296 297 298 299 299 299 298 298 298 298 297 297 296 296 296 296 296 295 295 295 295 295 295 295 296 295
302 299 299 300 303 302 300 299 298 297 296 293 293 293 293 293 293 294 296 295 294 294 293 293 294 294 292 293 294 293 294 294 295 295 294 293 293 293 293 294 293 298 301 299 298 297 298 297 297 296 298 299 299 300 299 298 297 297 297 296 296 296 296 295 295 295 295 295 295 295 295 295 295 295
303 300 301 302 305 306 307 305 298 297 297 296 294 295 295 295 293 290 289 291 297 295 294 294 294 295 294 294 294 296 296 297 294 295 294 293 293 294 294 294 295 298 300 300 297 295 296 296 296 295 297 298 299 299 299 298 297 297 297 296 296 295 295 295 295 295 295 295 295 295 295 295 295 295
306 305 305 303 303 301 302 302 303 301 299 297 297 296 295 295 297 296 292 291 291 294 296 295 295 298 298 296 297 299 299 297 295 294 294 294 294 294 295 297 297 299 301 299 295 293 294 296 295 294 295 298 298 299 299 297 297 297 297 296 296 295 295 295 295 295 295 295 295 295 295 295 295 294
307 306 306 304 303 300 300 303 301 299 299 302 304 302 299 297 298 299 298 297 296 297 297 298 299 299 300 300 300 300 300 299 298 297 296 296 296 297 298 297 297 297 299 300 295 291 294 296 294 294 295 297 297 298 298 298 298 297 297 296 296 295 295 295 295 295 295 295 295 295 295 295 295 294
309 308 307 306 305 305 300 297 291 294 296 298 300 302 303 303 304 303 304 300 300 301 300 300 300 300 301 299 300 300 299 298 297 298 298 298 297 296 294 293 295 295 298 300 296 293 293 295 294 294 296 296 295 297 298 298 298 297 297 296 296 295 295 294 294 295 295 295 295 295 295 295 294 295
309 308 307 308 306 304 298 292 288 291 295 297 298 300 302 304 303 303 304 297 294 294 294 295 295 294 294 294 294 293 293 294 295 295 295 295 296 294 292 292 293 293 296 297 298 295 293 295 294 294 295 295 294 296 297 298 298 297 297 296 296 295 295 294 294 295 295 295 295 295 295 295 294 296
307 306 312 308 306 304 297 289 289 290 296 297 298 301 302 302 302 302 303 304 303 298 295 294 293 293 293 294 294 294 293 293 293 297 295 296 296 293 293 291 292 294 295 295 298 294 293 295 295 293 294 294 295 295 296 297 298 297 297 296 296 295 295 294 294 294 295 295 295 295 295 295 295 296
306 307 307 307 302 303 295 289 290 289 295 297 297 300 301 301 301 298 297 297 297 298 298 299 301 302 302 303 301 302 298 296 302 300 298 298 295 293 293 293 293 291 292 296 298 293 293 294 294 293 291 290 293 295 296 297 297 296 296 296 295 296 295 295 294 294 294 295 295 296 296 296 295 297
305 305 302 296 291 290 289 289 290 290 289 294 296 297 298 300 298 295 295 296 297 297 298 299 300 301 303 303 302 301 300 302 302 299 299 299 298 295 294 294 293 291 292 296 297 294 294 294 293 294 292 289 288 292 295 296 296 296 296 295 294 295 295 294 294 294 294 294 295 296 296 296 296 298
303 303 302 298 292 290 289 290 289 290 288 290 294 295 297 297 295 293 295 296 298 297 297 298 301 301 299 299 299 299 298 298 299 299 299 299 298 297 295 294 293 293 294 297 297 295 294 294 293 293 293 292 291 291 293 294 295 295 296 294 293 294 294 294 294 293 294 294 295 296 295 296 297 297
303 303 301 299 293 290 290 290 289 290 290 289 294 295 293 291 290 294 296 295 295 296 297 298 297 298 297 296 298 298 298 297 299 299 298 298 298 298 298 297 295 293 294 298 296 297 295 293 293 293 292 291 291 291 291 292 293 294 295 294 294 294 294 293 293 293 293 294 295 296 295 295 295 296
303 304 303 300 294 290 290 290 290 290 290 290 292 291 290 290 290 291 294 294 295 295 296 298 298 297 297 297 295 296 296 298 298 298 298 298 298 298 299 299 298 297 297 298 299 298 295 293 295 293 292 291 290 290 290 290 291 295 294 293 293 294 294 293 292 292 293 293 294 296 295 294 294 295
296 293 301 299 291 290 290 289 289 289 290 292 291 291 290 289 290 292 293 293 295 295 296 296 297 296 296 296 296 297 298 298 298 300 298 298 298 298 298 299 299 299 299 298 298 298 296 295 295 294 293 291 290 289 288 292 292 292 291 293 293 293 293 293 292 293 293 293 293 295 294 293 294 295
297 290 290 291 290 290 290 290 289 289 289 289 289 289 289 292 293 294 294 295 296 296 296 294 296 296 296 296 297 299 299 300 299 298 299 298 298 299 299 298 298 298 300 300 298 298 296 295 295 295 293 292 291 291 290 291 292 291 291 290 289 291 292 293 293 292 292 292 292 294 293 293 292 294
290 289 289 289 290 290 290 291 292 294 295 292 290 290 291 293 293 294 294 295 296 297 295 295 294 295 296 296 298 299 299 298 296 296 297 296 296 297 296 295 295 296 297 298 298 298 296 296 296 295 293 293 293 292 291 291 291 291 291 290 290 292 292 292 292 292 291 291 291 292 293 293 293 292
295 291 291 292 291 292 291 292 294 294 295 296 297 297 296 295 295 295 296 296 297 296 296 296 296 295 296 298 298 297 296 296 296 296 295 295 295 296 294 293 293 294 296 297 298 297 296 297 297 296 292 293 294 293 293 293 290 290 291 291 290 287 290 292 292 292 291 291 291 292 292 292 292 292
299 296 292 293 294 297 295 295 296 296 297 295 294 295 296 298 298 297 297 297 297 297 297 297 298 296 298 296 296 295 295 295 295 296 295 296 295 295 295 292 291 292 294 295 297 297 296 297 296 296 295 294 292 293 294 292 290 289 290 290 290 290 291 291 291 292 292 291 290 290 290 291 290 291
301 299 295 294 296 295 293 294 295 295 296 295 296 297 297 297 297 298 296 296 297 298 296 296 297 294 295 295 295 295 294 296 295 296 295 296 297 296 295 292 291 291 292 293 294 295 296 297 296 295 295 295 295 295 293 290 289 289 289 289 290 289 290 291 291 291 292 290 289 289 289 290 291 291
297 298 295 295 293 294 293 292 291 293 294 295 295 296 294 296 297 298 297 297 297 298 297 297 295 295 294 295 295 295 294 294 296 295 294 295 296 294 292 291 292 293 292 292 293 294 295 295 294 294 295 294 296 296 293 290 289 290 289 288 288 288 289 290 291 292 291 290 289 288 288 289 290 291
292 291 292 292 293 292 294 291 291 292 293 292 292 295 296 298 298 295 299 298 295 293 292 294 296 295 293 294 295 293 293 295 294 296 295 294 296 294 294 291 291 292 292 293 292 294 294 292 292 292 292 292 293 291 294 291 288 288 290 289 287 287 287 288 289 291 291 291 290 287 287 288 289 290
291 292 291 292 293 294 293 291 291 294 295 294 294 295 293 292 292 295 293 296 297 294 294 292 292 291 292 293 292 294 294 289 292 295 292 294 294 293 293 293 292 292 293 293 292 294 294 293 292 290 289 289 288 287 290 293 291 287 287 288 288 286 288 288 289 289 289 289 290 289 286 286 287 289
290 292 295 295 295 294 291 294 295 295 296 296 295 296 294 292 293 296 297 296 298 294 294 292 292 291 292 291 290 290 290 290 290 290 290 292 292 293 290 288 289 292 292 293 294 294 295 293 293 291 289 288 287 287 288 290 291 291 288 288 288 288 287 287 287 287 287 288 289 289 288 287 287 289
291 293 294 294 294 294 294 294 293 294 295 295 296 296 297 298 298 298 300 299 295 293 293 293 292 291 293 291 290 290 290 291 291 290 289 292 289 289 289 289 288 291 292 293 293 294 294 293 292 291 290 287 287 287 287 289 288 291 292 290 287 288 287 287 285 286 286 287 287 289 290 288 289 289
293 292 292 292 293 294 293 294 293 295 297 297 296 295 296 296 297 296 295 294 297 296 296 296 294 292 292 294 292 290 289 289 289 289 290 290 292 291 289 289 289 290 291 290 292 293 294 293 292 292 291 288 288 288 288 287 287 290 291 290 289 287 286 285 287 285 284 285 287 289 289 290 291 291
292 292 293 292 292 293 294 294 294 295 295 296 295 296 296 293 295 295 296 293 294 297 296 294 293 293 292 292 291 291 291 293 292 290 290 289 289 290 290 288 289 289 288 288 288 290 292 292 293 292 292 292 291 291 291 288 287 287 290 292 289 289 286 286 287 286 285 284 287 286 287 288 288 289
291 291 291 292 292 293 293 293 294 294 295 295 296 295 295 295 295 297 296 295 293 293 292 292 293 292 291 290 290 290 290 290 290 290 290 289 289 289 289 289 287 288 288 287 289 289 291 293 294 290 292 293 293 294 288 288 288 290 290 291 290 288 290 291 288 287 284 285 285 284 285 286 286 287
292 291 292 292 292 293 294 295 295 294 294 294 294 295 295 295 294 294 293 292 294 292 292 291 290 290 290 290 290 290 289 290 289 288 289 288 288 288 289 288 287 287 287 287 287 289 293 296 295 296 295 291 288 287 287 287 287 289 289 289 288 290 288 289 289 289 288 286 284 283 283 285 285 286
294 295 295 294 294 294 295 295 295 295 294 294 294 294 293 293 293 292 291 291 291 291 290 290 290 290 290 291 291 291 290 289 289 289 289 289 289 288 288 288 288 289 289 289 289 291 290 293 294 292 289 288 288 288 287 288 288 288 289 290 289 289 287 289 288 288 288 288 289 287 286 285 284 284
297 297 297 297 297 297 297 297 296 296 295 295 293 294 292 291 290 291 290 290 290 290 290 290 289 289 290 290 289 289 289 289 289 289 289 289 289 289 288 288 288 289 289 288 288 288 288 289 290 290 288 287 287 287 288 288 288 288 289 288 288 289 288 287 287 288 286 286 288 289 289 288 288 289
297 297 297 297 297 297 297 297 297 296 295 294 292 292 291 290 290 290 290 291 290 290 290 290 289 289 290 290 290 289 289 291 290 290 290 290 290 289 288 288 288 288 288 288 288 288 287 288 288 288 288 288 287 288 288 287 288 288 289 288 289 289 287 287 289 289 288 288 287 288 288 288 288 288
Wind_Speed
3 3 4 4 4 3 3 3 3 3 3 3 3 3 4 4 2 2 3 2 2 4 4 3 4 5 5 6 6 5 5 7 10 8 8 8 6 11 16 14 10 7 4 3 7 9 11 11 11 15 18 18 19 20 21 23 23 20 22 22 20 19 19 19 20 20 20 20 20 21 21 21 21 20
2 3 3 4 4 2 2 2 2 2 2 2 3 3 3 4 4 2 2 3 2 3 3 3 5 5 6 6 6 5 6 9 11 8 10 9 8 15 14 12 14 12 4 5 8 11 11 10 14 16 18 19 19 21 21 22 22 21 20 19 18 18 17 16 18 19 20 20 19 20 20 20 20 21
3 3 3 2 2 1 1 2 1 1 2 3 2 1 1 3 2 2 3 2 2 3 3 3 4 5 5 6 6 6 6 9 12 8 9 10 14 15 10 13 15 13 5 8 10 10 10 10 13 17 17 19 20 22 21 20 21 21 20 18 17 17 17 17 16 18 19 19 19 19 19 19 20 20
2 2 2 2 2 3 2 1 0 1 0 0 2 2 1 2 1 2 2 2 4 3 3 5 4 6 5 6 7 7 6 9 12 9 9 11 13 8 7 12 15 12 9 12 9 9 9 10 12 18 20 18 21 21 19 18 18 18 17 16 15 16 16 16 16 16 18 18 18 18 18 18 19 19
3 2 3 2 1 1 1 1 1 1 1 2 2 0 2 2 2 2 2 3 4 4 4 4 4 6 4 5 5 8 7 8 9 11 8 9 9 8 8 9 12 14 15 14 9 9 10 13 15 16 15 19 17 16 17 15 14 15 15 15 15 14 16 17 15 14 16 17 17 18 18 18 18 18
2 2 3 2 3 2 2 3 2 2 3 2 3 1 1 2 1 1 2 3 3 5 4 4 5 4 4 5 5 6 8 8 9 12 10 9 9 9 9 8 8 14 15 15 9 9 13 14 14 15 15 16 16 15 15 15 16 15 14 13 12 13 13 13 13 13 15 16 17 16 17 16 16 17
3 3 2 2 1 0 1 1 1 2 3 2 2 2 0 1 0 1 2 2 3 4 4 5 5 4 4 4 6 7 6 8 9 10 10 10 9 9 10 9 8 13 16 16 9 9 12 12 15 16 16 15 14 13 15 17 17 14 11 9 10 10 10 10 11 11 14 17 18 18 18 17 17 18
3 3 2 2 1 0 1 0 2 1 3 1 2 3 2 1 3 2 2 3 3 3 5 4 4 4 5 3 5 6 6 8 9 9 9 9 10 10 10 10 9 11 16 15 13 9 9 11 15 15 16 15 13 14 17 18 12 7 7 8 9 10 11 11 12 12 13 14 16 18 19 19 19 20
3 3 3 2 2 1 1 1 2 2 1 3 2 3 4 3 3 3 3 4 3 3 5 5 4 4 3 3 4 5 7 7 7 8 9 10 10 9 9 8 9 13 14 13 15 11 7 11 14 13 15 16 16 17 16 14 6 9 16 18 17 15 14 15 14 15 15 15 15 17 19 20 20 20
2 2 2 2 1 1 1 2 1 1 2 2 2 3 3 3 3 3 4 3 4 4 4 4 5 3 5 4 3 5 7 8 8 8 9 10 9 9 9 9 9 8 8 7 8 8 5 9 15 13 15 14 16 18 17 11 9 19 20 20 19 18 16 16 16 16 15 15 15 16 17 18 19 19
3 2 3 3 2 2 2 1 2 2 1 1 1 2 2 3 3 4 4 4 4 4 4 4 3 4 4 4 5 6 6 7 7 8 9 10 9 9 9 10 9 8 8 9 13 11 7 12 11 12 14 14 17 17 16 17 21 19 19 19 19 19 18 18 17 17 16 16 16 16 16 15 16 18
3 3 3 3 4 5 4 3 3 3 3 5 2 3 3 3 3 3 4 4 4 4 4 4 3 4 4 5 3 5 5 6 7 7 8 11 11 11 10 10 11 8 9 10 8 7 6 8 9 11 10 12 15 16 14 16 17 18 21 23 23 23 22 21 20 18 16 16 16 17 17 17 16 16
3 3 4 5 4 4 6 6 4 3 3 2 3 3 3 3 3 4 4 5 4 4 5 5 4 5 5 5 5 7 5 7 9 10 8 9 9 9 10 10 8 8 10 10 8 8 8 8 7 6 6 8 11 11 13 11 13 17 20 23 23 23 22 21 19 16 16 17 18 18 17 16 17 17
4 5 5 4 8 6 4 2 1 1 2 3 2 1 3 3 3 3 3 4 4 4 5 5 5 5 6 5 5 5 5 6 8 9 9 10 10 9 8 9 7 7 8 8 9 9 8 9 8 6 6 6 7 7 8 9 11 17 21 23 24 23 22 21 20 19 19 19 19 19 17 16 17 17
4 5 5 3 4 4 3 1 3 2 2 2 2 3 4 4 2 2 3 3 3 4 4 5 4 4 5 5 5 4 6 6 8 8 9 9 9 10 11 11 8 4 8 7 8 9 8 10 9 7 5 6 6 5 7 11 14 18 20 23 25 24 22 22 22 21 20 19 19 18 17 16 16 16
5 5 5 4 3 3 3 3 2 4 5 6 7 7 6 6 6 5 2 1 2 2 3 5 4 4 4 5 5 5 5 6 7 7 8 8 10 11 10 9 11 10 9 7 6 9 8 10 8 8 5 5 5 7 10 12 15 18 21 24 24 23 22 22 22 21 21 20 19 19 17 16 16 16
5 6 6 5 6 4 10 7 4 4 4 7 9 8 7 8 9 9 9 8 4 3 3 3 5 4 4 5 5 4 5 5 7 7 8 8 9 9 9 10 11 11 9 4 5 8 10 10 10 9 7 6 6 8 10 12 15 19 23 24 24 23 22 22 21 21 20 21 20 19 18 16 15 15
5 6 5 4 3 3 3 4 5 6 7 7 6 6 5 6 9 11 12 11 11 8 5 4 5 5 4 6 6 7 5 6 7 7 8 9 9 10 11 12 9 10 8 4 5 7 10 10 10 10 9 8 9 9 11 13 14 19 23 24 24 23 22 22 21 21 21 21 20 19 18 16 15 15
5 5 5 5 5 5 5 1 2 3 4 3 3 5 8 8 8 7 7 7 6 6 6 7 5 6 6 7 8 8 6 6 7 6 8 10 10 9 9 8 7 8 7 3 4 9 11 8 11 11 10 9 10 9 10 11 15 20 23 25 24 23 23 22 22 21 21 21 20 19 18 17 16 15
2 3 4 5 5 5 4 3 6 4 3 3 5 7 4 3 3 6 8 9 7 4 3 4 5 7 9 11 10 11 10 8 8 7 8 8 6 8 7 9 9 7 9 6 5 8 11 8 9 11 11 10 10 9 7 9 13 19 24 25 24 22 22 23 22 21 20 20 20 19 18 17 17 15
3 3 2 2 3 4 4 5 6 5 3 2 4 7 4 3 3 2 4 5 7 7 9 11 14 16 17 18 18 17 18 13 7 5 6 6 7 7 8 8 8 9 8 5 5 8 10 10 8 9 11 12 10 9 9 8 11 17 22 24 24 22 22 21 21 21 20 20 20 19 18 17 15 16
3 4 6 5 2 3 6 7 6 5 1 2 4 7 3 3 5 1 4 3 3 6 10 12 15 16 17 17 17 16 16 17 9 4 6 7 6 6 7 9 8 9 7 6 6 8 8 10 7 8 9 10 8 9 10 11 9 14 19 25 23 24 25 23 22 21 22 22 22 20 18 15 13 9
4 5 6 6 4 3 8 9 6 6 2 2 3 6 5 5 3 5 4 4 5 6 7 8 8 10 11 8 6 6 9 6 4 4 4 6 5 6 7 7 8 8 6 7 6 8 9 9 7 10 11 11 10 7 10 11 8 10 14 17 17 22 24 24 23 23 23 23 23 22 20 15 10 5
4 6 5 6 11 11 10 8 6 5 4 1 2 4 5 5 3 4 4 4 3 6 7 8 9 10 7 5 4 4 4 5 4 6 6 5 4 5 6 6 6 7 7 8 7 7 6 5 7 9 7 10 12 14 12 11 8 9 13 16 15 19 20 19 19 22 22 22 23 22 24 24 11 5
4 6 6 5 10 13 10 9 8 6 4 2 1 3 3 0 3 5 4 6 8 6 7 9 10 5 4 4 4 3 4 5 6 6 6 5 4 5 5 6 7 7 8 8 10 6 7 6 7 8 7 6 8 11 11 11 8 7 11 13 14 15 14 14 12 14 17 20 20 22 23 24 18 6
7 5 7 7 11 14 13 11 9 7 6 4 2 5 7 9 9 6 5 5 5 6 7 8 6 4 4 4 4 3 4 6 6 6 5 5 6 6 5 5 7 8 8 9 11 8 7 6 6 8 8 8 10 10 11 10 7 6 9 11 11 12 12 13 13 13 12 12 11 14 17 22 24 24
6 3 8 10 17 15 15 12 10 9 8 4 5 9 9 9 10 7 5 5 5 6 7 8 6 4 5 4 4 3 5 6 6 5 5 6 7 7 6 6 6 7 7 7 8 9 6 5 6 7 8 8 10 10 9 11 13 9 10 13 13 12 12 12 12 12 12 13 12 16 17 19 22 19
3 7 5 10 18 16 14 12 11 10 8 5 7 7 8 9 7 5 6 6 6 6 8 6 4 5 5 4 4 3 4 6 5 5 4 5 7 7 8 8 8 7 6 6 8 8 7 5 7 5 5 7 10 10 11 9 9 7 9 10 10 11 12 14 13 12 12 12 11 10 12 13 13 13
3 6 9 11 15 14 12 11 8 6 6 8 9 10 11 9 5 6 5 6 5 7 5 4 4 4 4 5 5 4 5 5 4 4 5 5 6 6 7 8 8 6 4 6 8 8 6 7 7 6 5 5 8 9 7 9 10 9 8 11 14 13 12 12 12 12 12 11 12 9 10 9 10 10
4 6 7 2 8 8 8 6 4 4 5 8 11 11 10 6 6 6 6 6 7 6 2 3 5 4 4 6 6 5 4 3 4 5 6 6 6 6 6 7 7 7 6 7 9 7 6 7 7 5 6 7 8 8 6 8 9 10 8 7 9 7 11 13 13 12 12 12 11 9 8 8 9 10
2 2 3 4 5 4 9 8 5 4 3 3 4 4 5 6 7 7 7 7 8 7 2 3 4 3 5 6 5 5 5 3 4 4 6 5 6 6 6 5 6 7 8 9 8 6 6 8 8 5 5 8 9 8 6 5 7 9 9 8 9 10 11 11 12 12 12 10 9 9 10 10 10 11
6 6 6 5 5 3 4 4 2 3 4 5 5 6 5 6 8 10 12 11 7 5 3 3 3 3 4 5 5 6 4 3 4 5 6 4 6 7 5 5 5 5 7 9 8 6 7 7 6 6 5 7 9 9 6 5 7 7 8 7 7 6 7 10 11 12 12 10 11 10 9 10 10 10
5 5 5 5 6 5 5 4 4 3 4 5 6 6 6 6 7 7 7 8 8 8 7 5 1 3 4 5 5 5 4 4 6 6 6 4 6 6 4 5 5 6 8 9 7 8 9 8 5 5 7 7 7 5 5 8 7 6 6 8 7 8 8 8 8 10 12 12 11 9 9 9 9 9
5 5 5 6 5 5 4 5 5 5 5 5 6 6 8 8 7 7 5 4 5 3 1 0 0 3 4 6 5 4 4 6 5 6 5 4 5 5 5 6 5 6 6 8 7 7 8 8 6 6 6 6 6 2 2 4 8 8 7 6 6 8 7 7 7 8 10 9 10 11 11 10 9 9
5 5 5 5 5 6 6 5 5 5 5 5 5 6 6 7 8 6 4 4 4 4 2 2 3 4 6 5 4 4 5 6 6 6 5 5 6 6 5 4 6 6 7 8 6 7 8 7 7 8 8 7 9 4 4 4 3 7 7 6 4 6 7 6 6 6 8 9 9 10 10 10 11 10
7 5 4 5 5 6 6 6 7 7 6 6 6 7 7 6 6 6 5 5 5 3 2 2 2 2 4 5 6 6 6 4 5 5 5 5 6 6 5 5 5 6 6 7 6 7 8 7 6 7 8 11 9 10 10 4 6 2 5 8 7 6 6 6 5 4 6 7 7 8 9 10 10 10
7 7 6 5 5 6 5 4 3 4 5 5 6 7 4 3 4 5 6 7 7 5 5 4 4 5 5 6 7 6 4 3 5 5 4 5 6 5 4 5 6 6 6 7 6 7 7 7 6 6 7 8 9 11 11 8 5 7 0 6 8 6 6 6 6 7 6 6 6 6 6 6 8 8
6 7 7 6 5 4 4 4 6 6 6 6 7 6 4 4 5 6 6 5 5 5 5 5 6 6 6 8 5 2 3 4 5 5 5 6 5 4 3 4 5 6 6 7 6 6 7 7 6 6 6 7 8 8 10 9 7 5 6 1 6 7 6 7 7 7 7 5 5 6 5 7 8 7
6 6 5 5 4 4 4 5 6 6 5 5 5 4 5 5 5 6 7 6 3 3 2 2 2 3 4 2 1 3 6 6 6 7 6 6 5 3 4 4 6 6 6 7 6 6 6 6 6 6 6 7 7 8 7 7 7 9 6 4 1 5 7 4 7 6 6 7 8 6 4 4 6 9
5 5 5 4 5 4 5 5 5 5 5 5 4 4 4 4 5 6 8 5 4 4 3 2 1 2 3 3 4 4 4 6 6 6 5 3 4 4 4 4 4 5 5 6 6 7 6 7 6 6 6 7 7 8 7 7 6 6 8 7 6 3 4 4 6 6 7 4 6 6 8 7 6 5
5 5 5 5 5 6 6 7 6 6 5 5 5 5 6 6 7 6 2 0 0 0 1 1 2 4 5 5 6 6 6 6 6 8 6 5 4 4 5 5 4 5 5 6 6 6 7 6 8 11 6 6 6 7 7 8 10 10 8 10 6 6 7 7 3 1 3 4 5 6 6 7 6 6
6 7 6 6 6 7 6 6 6 4 4 4 5 5 7 7 5 5 4 3 3 2 2 3 4 5 6 6 6 6 5 8 9 6 6 4 4 4 5 5 6 6 5 7 7 7 7 6 6 6 5 6 6 6 7 8 8 9 9 7 8 6 7 8 6 5 2 2 1 3 4 5 3 5
7 7 7 7 7 7 7 7 6 6 5 6 7 7 4 2 2 3 4 4 4 4 4 4 5 5 5 6 6 6 8 6 5 5 3 3 5 7 7 6 6 6 5 6 6 6 6 7 5 5 5 5 4 4 7 8 8 8 8 9 8 8 6 7 9 8 5 5 6 5 3 2 1 6
7 7 7 6 6 7 7 7 7 6 7 7 7 6 4 4 4 5 4 5 5 5 4 4 4 4 5 6 6 5 4 5 4 3 4 5 6 6 6 6 5 5 5 5 7 7 7 7 5 4 5 6 4 5 8 7 7 7 8 8 7 8 8 8 6 4 5 7 10 9 8 9 8 6
5 5 6 6 6 7 7 7 7 8 8 7 3 1 2 4 4 5 5 5 6 5 5 5 5 5 5 6 6 7 6 6 5 6 6 6 6 6 6 5 6 6 7 6 6 7 6 4 6 4 4 6 5 5 7 6 7 7 8 8 9 8 7 5 7 9 8 9 7 12 10 10 9 6
Wind_Direction
64 80 106 116 93 59 46 37 27 5 10 19 20 42 44 355 350 360 335 46 8 7 346 350 339 340 338 337 324 325 329 332 344 337 335 333 323 327 326 324 318 311 318 308 292 297 329 350 335 329 330 328 323 325 329 332 330 329 331 331 327 325 322 320 319 316 313 307 303 301 298 296 296 297
94 82 72 61 46 57 88 80 24 8 359 31 31 16 60 33 28 347 355 313 66 340 326 356 324 328 336 333 325 330 332 337 346 338 333 330 329 329 325 338 338 328 340 290 302 339 357 333 335 331 323 320 322 327 328 326 322 320 322 322 318 314 312 313 317 320 319 316 311 305 302 303 303 299
94 91 81 73 96 87 92 96 101 43 1 358 47 346 89 86 41 348 321 316 335 12 322 318 315 322 330 330 329 334 336 339 343 341 331 326 330 331 333 340 332 334 323 308 343 359 340 332 324 335 328 329 329 329 327 320 316 318 315 309 305 306 307 309 310 318 325 326 321 316 311 307 305 304
130 144 121 124 155 187 146 91 63 158 165 341 343 352 360 109 60 359 341 307 292 325 325 315 310 323 322 334 334 333 337 338 342 339 331 325 330 333 333 332 327 328 324 331 356 340 330 328 333 343 341 334 333 330 324 321 316 311 305 299 299 303 306 311 312 316 323 326 327 324 319 312 306 304
118 102 113 106 67 2 75 160 152 318 211 170 180 100 336 63 48 24 338 328 313 303 315 314 317 305 334 333 335 332 337 339 339 336 329 330 331 335 333 325 324 329 333 336 344 323 332 344 343 342 337 338 334 333 334 328 315 306 304 306 312 316 319 320 318 314 310 309 312 317 318 318 314 307
107 132 116 95 49 19 37 2 22 19 342 28 37 22 34 25 1 53 353 326 292 302 316 319 302 307 343 322 338 338 340 341 337 330 334 335 335 335 330 325 325 327 329 330 325 319 352 348 342 339 338 337 339 339 337 331 324 320 322 326 324 320 319 314 309 301 298 301 302 301 304 306 307 307
120 99 112 126 145 153 86 62 36 346 352 356 52 311 62 271 79 36 350 291 291 308 309 307 314 322 329 332 336 339 345 339 331 326 335 336 336 332 328 328 327 328 325 323 307 338 355 350 344 342 343 344 342 336 335 335 344 350 346 330 315 307 303 297 294 289 293 299 300 300 299 299 298 302
158 145 125 110 132 133 39 68 110 13 325 309 46 336 339 334 53 355 313 296 297 300 311 310 316 321 329 331 333 340 342 337 329 330 327 332 331 327 327 330 328 322 318 319 318 331 350 350 345 345 350 350 341 338 341 349 8 11 342 321 312 303 299 299 299 296 294 292 292 294 294 293 297 300
135 155 160 160 140 145 144 21 47 47 338 346 34 12 336 347 28 344 308 292 310 311 304 306 304 320 330 323 324 345 340 330 328 330 331 333 328 327 326 327 323 318 319 322 319 323 341 351 345 352 353 351 350 349 344 351 14 1 351 349 340 328 320 317 313 308 302 298 294 292 294 294 294 295
135 138 133 143 111 81 71 74 56 13 355 337 25 23 335 347 355 328 302 323 318 301 297 308 309 342 335 331 331 344 336 331 331 329 329 324 325 327 328 327 324 321 323 326 324 322 336 352 354 356 354 352 357 355 353 14 5 355 1 358 354 346 336 327 320 313 306 301 299 294 291 289 289 289
140 128 96 71 63 74 63 61 47 359 312 310 44 16 354 343 338 318 328 321 313 325 327 311 327 329 326 333 335 336 329 329 333 332 330 329 328 326 329 325 321 319 323 320 319 321 345 1 356 355 354 1 359 356 356 10 2 358 354 348 342 336 329 323 316 311 308 307 306 303 297 291 286 287
116 111 102 80 51 54 38 30 27 30 5 335 31 26 4 340 336 331 330 328 339 341 331 315 331 332 321 331 333 322 323 333 331 344 335 325 327 328 327 325 319 318 321 325 328 333 353 350 350 354 355 4 358 355 359 7 360 357 349 342 337 333 330 326 321 315 310 310 310 309 306 299 292 284
133 103 86 78 86 86 87 77 73 68 38 3 353 19 3 348 341 345 338 336 351 335 326 322 342 325 326 327 336 331 339 347 338 328 329 317 316 320 319 317 305 312 321 323 329 342 349 344 347 351 354 359 355 352 359 0 358 355 347 339 334 331 329 327 325 322 320 316 313 309 306 302 297 290
130 105 85 104 115 110 105 106 105 69 35 16 11 349 357 354 348 349 344 348 342 337 326 327 329 331 322 330 337 323 334 334 327 324 324 322 320 318 313 302 307 311 319 325 336 341 345 345 336 346 348 348 351 348 359 359 354 349 347 342 335 331 327 325 323 320 317 315 311 309 306 303 299 295
134 111 118 123 136 138 152 179 203 190 210 246 282 297 293 313 328 339 347 346 331 350 323 316 323 325 317 328 326 326 334 327 324 318 318 319 322 326 326 324 313 307 326 334 334 333 343 346 336 334 338 339 341 341 349 351 349 350 347 343 337 332 328 325 323 322 320 317 312 308 306 302 300 298
134 137 139 168 167 181 191 194 211 231 223 219 227 234 247 263 281 273 265 294 317 333 318 308 310 317 323 316 316 316 323 316 313 308 317 320 323 318 316 316 326 319 330 337 340 327 334 343 333 325 323 330 332 333 339 347 351 351 349 345 339 333 330 328 326 324 322 319 314 309 304 300 297 296
156 152 169 179 191 191 204 203 198 204 220 233 235 236 240 249 246 256 264 255 244 277 285 302 305 305 314 310 301 300 297 304 303 308 313 317 314 309 306 316 316 320 330 4 339 327 334 336 334 331 323 326 330 329 335 343 349 351 351 346 340 335 331 329 327 325 325 321 317 312 307 301 296 293
169 162 172 168 165 155 186 218 220 206 206 210 220 227 228 232 240 240 243 247 252 245 247 273 273 286 301 288 282 282 291 302 299 304 303 306 309 309 313 312 312 319 333 18 328 327 332 332 331 332 331 334 333 328 332 339 347 351 351 346 342 339 336 332 328 326 325 324 320 316 313 307 299 293
162 164 171 174 178 170 199 182 51 16 353 320 259 216 209 221 228 221 220 225 233 227 216 228 254 278 278 274 276 279 282 285 283 292 295 295 291 294 302 305 316 315 324 335 1 336 331 330 331 327 330 336 330 327 328 340 348 353 351 346 343 341 340 337 333 327 323 321 319 316 316 313 308 298
146 154 180 188 181 174 129 118 84 56 10 322 311 298 270 267 236 206 205 204 210 233 243 255 259 262 266 270 277 281 281 282 292 301 298 286 290 312 321 326 328 323 326 323 353 333 325 331 330 323 327 333 328 325 330 334 351 355 351 345 343 343 341 338 333 328 323 320 318 316 314 313 310 306
186 160 185 241 171 143 132 141 121 98 49 314 303 290 287 279 280 284 157 227 251 256 251 253 261 266 271 275 276 279 280 275 272 296 288 311 323 324 330 327 328 328 325 319 345 328 320 329 328 326 328 331 326 330 332 334 356 356 350 344 343 342 342 338 335 332 329 325 321 317 314 310 310 306
193 175 134 58 347 160 146 156 144 137 107 312 298 287 272 280 272 331 34 6 319 274 261 259 262 267 270 270 271 275 279 279 270 212 326 313 323 328 331 326 324 318 321 313 327 330 321 322 330 331 327 321 330 330 332 338 354 354 351 345 345 346 346 344 341 337 335 333 330 326 318 310 308 303
200 152 130 101 70 96 143 150 151 132 130 305 309 316 325 295 309 29 350 352 329 323 319 306 300 295 275 260 254 256 266 280 330 340 311 309 326 329 326 321 320 322 322 312 335 335 323 332 336 346 335 337 324 330 333 338 352 357 357 344 342 347 348 345 342 340 338 337 336 334 335 327 313 294
210 142 131 128 125 125 143 160 168 142 122 213 310 327 324 331 353 333 325 300 300 296 293 288 289 279 282 311 328 346 353 332 328 321 314 301 318 327 320 320 326 322 312 310 335 335 311 325 332 349 343 334 333 334 336 338 356 3 357 348 345 345 347 349 345 341 338 338 339 343 347 344 324 313
201 171 174 157 152 150 161 170 181 161 170 169 265 284 288 319 271 302 310 308 311 296 292 286 269 277 325 321 323 342 356 331 309 307 306 313 324 326 320 320 320 312 303 302 324 343 321 330 335 338 337 334 319 326 330 330 345 10 357 352 342 342 347 350 345 340 336 340 341 351 352 352 1 339
206 190 177 162 169 164 166 172 178 184 198 189 217 253 268 293 314 316 296 292 296 296 296 289 300 316 324 320 324 342 345 320 306 304 311 324 325 316 307 306 317 318 318 315 335 333 325 328 341 338 334 337 329 329 327 333 333 347 348 348 347 343 347 346 347 343 341 339 342 354 352 355 360 353
318 263 188 169 170 171 169 173 177 185 197 191 235 249 275 294 300 303 286 287 291 286 285 282 294 325 315 323 321 344 333 306 305 310 325 327 324 317 310 309 299 299 299 314 331 326 327 315 331 342 333 335 328 325 329 337 337 343 346 351 348 348 349 351 352 346 342 344 340 350 2 2 355 348
338 328 294 167 171 169 167 173 181 194 188 216 243 263 273 279 289 288 289 280 272 275 267 278 311 321 307 312 324 328 308 296 302 321 327 324 318 317 314 310 310 306 313 326 330 321 326 326 323 326 333 339 335 331 327 325 323 329 336 335 339 353 357 355 351 351 352 347 343 354 5 4 352 355
334 353 332 158 154 161 167 174 179 186 208 226 246 255 264 274 280 274 267 274 278 269 279 316 309 306 307 312 289 300 296 294 322 344 320 315 309 312 311 310 312 317 327 337 325 321 325 330 319 320 334 338 335 318 321 324 327 327 340 342 349 349 348 355 354 353 351 351 350 353 9 355 358 357
330 8 35 139 141 155 160 156 188 205 208 222 234 248 256 258 257 257 260 263 264 256 296 297 296 285 310 304 299 291 297 327 344 337 319 320 318 318 320 324 323 329 333 328 321 316 328 328 320 324 336 334 332 320 316 328 328 324 331 338 328 306 0 357 354 355 357 352 345 354 5 4 4 4
225 178 164 185 190 192 190 192 197 196 221 241 253 243 240 239 245 245 240 246 256 254 232 275 281 306 296 292 307 321 310 330 342 335 310 316 309 313 316 325 323 333 329 323 317 318 331 328 320 335 353 335 328 321 312 331 316 323 322 328 352 4 337 345 351 356 358 351 344 355 5 6 11 15
185 184 198 213 210 189 182 217 223 224 224 231 240 248 245 244 240 239 239 247 263 267 238 244 275 308 322 305 309 303 312 336 336 318 305 308 311 311 318 336 329 329 326 323 318 324 331 323 323 332 351 338 326 316 326 327 308 310 313 322 337 342 346 350 345 351 357 353 2 3 2 5 6 7
199 175 173 201 202 204 206 204 221 226 229 229 231 240 242 247 250 243 240 243 242 232 236 231 225 319 297 296 302 301 321 330 316 303 300 306 315 308 320 326 326 335 329 323 320 326 327 322 330 346 340 328 314 305 331 323 310 309 313 314 336 344 349 345 348 348 348 3 5 358 2 7 10 6
196 199 194 198 193 204 193 209 216 223 232 237 234 235 237 238 249 258 239 238 273 275 206 155 324 272 280 283 287 304 307 300 297 292 298 309 311 310 320 326 330 328 322 316 319 327 323 321 333 344 338 325 315 264 277 277 299 312 307 311 330 342 340 342 338 347 357 9 355 0 2 4 7 9
199 196 203 208 196 197 209 211 212 215 225 239 247 253 244 214 214 220 236 248 246 240 232 241 239 250 256 263 279 291 280 285 288 297 300 301 305 303 309 333 327 329 324 317 321 327 324 321 341 343 338 337 335 328 184 193 293 296 314 314 326 338 335 341 329 339 359 359 3 5 0 6 8 5
198 198 200 201 205 209 214 217 209 211 218 231 239 247 254 262 266 257 262 253 246 226 217 228 248 270 272 277 274 267 269 278 292 293 306 312 310 303 317 329 325 318 322 313 319 325 325 322 345 351 343 338 344 338 338 211 185 270 329 321 329 343 332 334 326 325 353 355 360 7 10 357 354 356
192 200 204 205 208 214 223 217 215 226 233 243 251 253 242 236 249 234 238 231 222 206 201 202 226 242 256 257 259 252 256 296 297 294 296 298 296 299 322 325 320 319 320 313 314 325 323 323 340 352 345 338 343 338 324 326 273 219 144 325 320 336 329 326 335 346 341 347 343 4 1 340 345 342
196 194 203 208 214 217 223 226 223 231 240 242 236 229 234 245 253 252 247 228 212 210 216 219 230 235 244 247 240 265 300 282 271 280 278 275 284 294 307 308 309 314 312 304 315 322 320 319 336 343 347 338 330 324 324 319 336 316 196 248 318 309 331 345 351 345 322 335 348 322 334 3 344 328
198 199 196 205 210 225 231 234 226 225 231 236 238 229 235 242 253 267 268 253 237 229 232 233 241 235 239 246 286 285 276 276 279 276 279 277 264 284 303 299 306 303 306 302 308 320 317 317 329 338 338 330 319 307 296 308 310 308 307 177 237 318 324 354 332 324 329 334 331 314 263 242 244 269
199 207 214 213 226 234 248 257 257 246 245 247 243 241 237 244 241 243 246 238 245 269 277 282 297 338 334 328 309 293 284 277 275 265 251 255 278 283 274 274 278 283 292 293 310 306 311 303 317 320 319 299 289 277 282 279 277 298 315 306 197 222 270 326 334 329 321 314 316 335 331 332 352 353
202 207 218 220 226 228 235 239 238 235 238 251 256 250 244 239 241 237 220 218 133 97 291 292 311 306 294 291 282 275 272 274 277 267 266 265 258 261 265 267 280 270 278 289 291 296 290 284 286 297 299 301 300 329 349 343 331 327 328 321 293 247 252 223 243 255 256 304 327 311 318 329 326 345
202 210 216 219 224 233 240 246 244 243 253 257 256 252 246 237 229 232 241 237 237 234 230 257 263 266 265 263 264 263 269 266 254 263 271 265 274 278 271 259 256 272 278 276 274 270 271 284 295 305 314 327 334 353 322 313 314 315 316 312 314 270 239 249 231 219 212 223 342 354 318 326 353 6
200 211 214 218 221 227 229 232 233 231 238 243 249 249 243 252 258 244 230 232 234 232 236 239 236 236 243 253 259 257 245 252 271 268 275 302 295 282 273 271 261 256 251 256 266 270 281 288 294 310 318 324 296 321 304 299 299 306 311 320 315 317 306 252 241 239 231 229 215 198 197 231 357 350
203 207 217 217 215 219 227 230 235 230 228 234 231 228 233 247 254 243 227 227 224 224 229 234 244 244 250 253 256 267 285 280 273 298 311 297 284 273 260 260 263 268 271 267 279 283 284 288 286 302 318 295 289 311 299 300 306 304 305 299 313 325 312 317 322 267 257 262 254 251 258 254 235 221
207 204 206 215 219 224 227 227 230 233 226 206 187 215 246 250 245 245 239 228 226 222 223 228 236 245 257 273 283 289 282 286 297 294 288 280 274 273 275 277 278 274 270 268 272 284 283 285 292 306 281 285 288 287 280 281 287 301 305 311 315 313 306 322 345 329 325 326 245 212 230 247 250 244